Location: Wildlife_Club
(35.6000°N, 81.4330°W)
Time: 16:28:35
(UTC-04:00)

Vanguard 2 Rocket - Pass Details

Date: 24 June 2019
Orbit: 554 x 3326 km, 32.9° (Epoch: 16 July)

Event Time Altitude Azimuth Distance (km) Brightness Sun altitude
Rises 23:00:54 0° 254° (WSW) 3,673 10.3 -21.5°
Reaches altitude 10° 23:03:01 10° 252° (WSW) 2,961 9.7 -21.7°
Maximum altitude 23:10:27 73° 169° (S) 1,663 7.9 -22.6°
Drops below altitude 10° 23:24:08 10° 88° (E) 5,187 10.5 -24.1°
Sets 23:29:07 0° 87° (E) 6,585 11.0 -24.6°
